Wind_Speed
26 25 24 24 23 22 21 21 20 20 18 18 18 17 17 17 17 17 17 16 16 16 15 15 15 15 15 15 16 16 16 16 16 16 16 16 16 16 16 16 16 17 17
28 26 26 26 25 24 24 23 22 21 20 19 19 19 18 18 18 18 18 18 18 18 18 18 17 17 17 17 17 17 17 17 17 17 17 18 18 18 18 18 18 18 18
29 28 27 27 26 26 25 24 23 23 22 21 21 21 21 20 20 20 19 19 19 19 19 19 19 19 19 19 19 19 19 19 19 19 19 19 19 19 19 19 19 19 19
31 29 28 28 28 27 26 26 25 24 24 23 23 22 22 22 22 21 21 20 20 20 20 20 20 20 20 20 20 20 20 20 20 21 21 21 21 21 20 20 20 20 20
32 31 30 29 29 29 28 27 27 26 25 25 25 24 24 23 23 23 23 22 22 22 22 22 22 22 22 22 22 22 22 22 22 22 22 22 22 22 22 22 22 22 22
35 34 32 31 30 30 30 29 28 28 27 26 26 26 25 25 24 24 24 24 24 24 24 23 23 23 23 23 23 24 24 24 24 24 23 23 23 23 23 23 23 23 23
37 36 35 33 32 31 31 31 29 29 28 28 27 27 27 26 26 25 25 25 25 25 25 25 25 25 25 24 25 25 26 25 25 25 24 24 24 24 23 24 24 24 24
38 37 36 35 34 33 32 32 32 30 29 29 29 29 28 27 27 27 26 26 26 26 26 25 26 26 26 26 26 26 26 26 26 26 25 25 25 24 24 25 25 25 25
40 39 39 38 37 35 34 34 33 33 31 30 30 30 29 29 29 28 28 28 27 27 26 27 27 27 27 27 27 27 27 27 26 26 26 25 24 25 25 25 25 26 26
42 40 40 39 39 38 36 35 35 35 33 32 31 31 30 30 30 29 29 29 28 27 27 27 27 27 28 27 27 27 27 26 26 26 26 25 25 26 26 26 27 27 27
43 42 41 40 39 39 38 37 37 37 36 34 33 33 32 31 31 31 30 30 29 29 28 28 28 29 28 28 27 27 27 27 26 26 26 26 26 27 27 27 27 28 28
45 44 42 41 41 40 39 39 38 38 38 37 35 34 34 33 32 31 31 31 31 30 30 30 30 30 30 29 29 28 28 27 27 27 26 27 27 28 29 29 29 29 29
47 46 44 43 42 41 40 40 39 39 39 39 38 36 36 35 34 33 33 32 32 32 31 31 31 31 31 30 30 29 29 29 28 28 28 29 29 30 31 31 31 31 31
49 47 47 46 45 44 42 41 41 40 40 39 39 38 38 37 36 35 34 34 33 33 33 33 33 32 32 31 31 31 31 31 31 31 31 31 31 32 32 33 33 34 34
50 49 48 47 46 45 44 43 42 41 41 41 40 40 39 38 38 37 36 35 35 34 34 34 34 33 33 33 34 33 33 33 33 33 33 33 33 34 34 35 35 36 37
51 51 50 48 47 46 45 45 44 42 42 42 41 41 41 40 39 38 37 37 37 36 36 35 36 36 35 35 35 35 35 34 34 35 35 35 35 36 36 37 37 38 38
52 51 51 50 48 47 46 45 44 44 44 43 42 42 42 42 41 40 40 39 39 39 39 38 38 38 38 37 37 37 37 36 36 37 37 37 38 38 38 39 39 40 40
54 53 51 50 49 48 47 47 46 45 45 44 44 43 43 44 44 43 42 41 41 41 41 40 40 40 40 40 40 39 39 39 39 39 39 40 40 40 40 40 41 41 41
54 53 53 51 50 49 48 48 47 47 46 45 45 45 44 45 45 45 44 43 42 42 42 42 42 42 42 42 42 41 41 41 41 41 41 41 42 42 42 42 42 43 43
55 54 53 52 51 50 49 49 48 48 47 47 47 46 46 46 46 46 46 45 44 43 43 43 43 43 43 42 43 43 43 43 42 42 43 43 43 43 44 44 44 44 44
55 54 54 53 52 52 51 50 50 49 48 48 47 47 47 47 47 47 47 46 46 45 45 44 44 44 44 43 43 43 43 43 44 44 44 45 45 45 45 45 45 45 46
55 55 54 54 53 53 52 52 51 50 50 49 48 48 48 48 47 47 47 47 47 47 46 46 45 45 45 45 44 44 44 44 45 46 46 46 46 46 46 46 46 46 47
55 55 55 55 54 54 53 52 52 52 51 50 49 48 48 47 48 48 48 48 48 49 49 48 47 46 46 46 46 46 46 46 47 47 47 47 47 47 47 47 47 47 47
55 54 54 54 53 53 53 52 52 51 51 50 50 49 48 48 49 49 49 49 49 50 49 49 49 48 48 48 48 48 48 49 48 48 48 48 48 48 48 48 48 48 48
56 55 54 54 53 53 52 52 52 52 52 51 51 50 49 49 49 50 50 49 49 50 50 50 50 50 49 49 49 50 50 50 49 49 49 49 49 49 49 49 49 49 49
56 55 55 55 54 54 54 54 53 53 53 53 52 51 51 51 51 51 50 50 50 50 50 50 50 50 50 50 50 50 50 50 49 49 50 50 50 50 49 49 49 50 50
Wind_Direction
230 230 231 231 231 233 234 235 236 236 238 241 243 246 246 249 253 255 257 261 264 268 270 272 276 280 283 287 290 292 294 296 299 300 301 301 302 302 302 302 301 301 301
230 231 232 231 232 234 236 236 237 238 239 241 244 247 248 251 255 257 259 261 264 267 269 271 275 277 280 284 287 288 290 293 294 296 297 298 299 299 299 300 299 299 298
230 232 234 234 234 235 236 237 239 241 241 242 244 247 249 251 254 257 259 261 264 267 269 271 274 276 279 282 284 286 289 290 291 292 293 294 296 296 297 297 297 297 297
231 233 234 235 236 237 237 238 239 241 243 244 246 247 250 252 255 257 259 261 264 267 269 270 273 275 277 280 283 284 286 288 288 289 290 291 292 293 294 295 295 296 295
233 233 235 236 237 237 238 239 240 242 244 246 247 249 251 253 256 258 260 262 264 265 268 269 271 274 275 277 280 282 285 287 288 289 290 290 292 291 292 292 292 293 294
233 234 236 237 238 238 239 240 242 243 245 247 248 249 252 254 256 258 260 263 265 266 267 268 270 272 275 276 278 281 283 284 286 288 290 291 291 291 291 292 292 292 292
233 234 235 237 238 239 240 241 242 244 246 247 248 249 251 254 256 259 262 264 266 267 268 267 269 272 274 275 277 281 283 283 285 286 288 289 290 290 290 292 292 291 291
234 234 235 237 238 240 241 242 243 245 247 248 249 251 251 254 257 260 262 265 266 267 268 268 270 272 273 274 277 280 282 284 284 284 285 286 287 288 290 292 291 291 292
235 236 236 237 239 241 242 243 244 246 247 248 250 251 253 256 259 261 262 264 267 268 268 269 271 272 273 274 276 279 281 283 283 283 283 285 286 287 290 291 290 289 291
237 237 238 238 239 241 242 243 244 246 248 249 250 252 254 257 259 260 262 264 265 267 268 269 271 272 273 274 276 278 280 281 281 282 282 283 284 286 288 288 288 288 289
237 238 239 240 241 242 244 245 246 246 248 249 251 252 255 257 258 260 261 262 264 265 266 268 270 272 272 273 275 277 278 279 280 281 282 282 283 285 286 288 289 290 290
237 238 240 242 243 244 245 246 247 247 248 249 251 252 254 257 257 260 261 261 262 264 266 267 269 271 272 273 274 275 277 278 279 280 281 282 282 283 285 287 289 290 290
237 238 239 241 243 245 246 247 248 249 249 250 251 253 253 256 257 260 261 262 262 264 266 267 268 269 271 272 273 275 276 278 279 280 281 281 281 283 284 286 288 289 289
237 238 239 241 243 245 246 248 248 249 250 250 251 253 254 256 258 260 261 261 262 264 266 267 267 268 269 270 271 274 275 277 278 279 280 281 282 284 285 285 287 287 288
237 238 240 241 243 244 245 247 249 250 251 251 252 253 254 255 257 258 259 260 262 263 264 266 267 268 269 269 271 273 274 275 277 278 280 282 282 284 285 286 287 287 288
237 239 240 241 242 244 245 247 248 249 251 251 252 253 253 254 255 256 257 259 261 263 263 264 266 267 268 269 271 272 274 275 276 277 279 280 282 284 285 286 286 287 288
237 238 240 241 243 244 245 247 248 250 251 251 252 253 253 253 254 256 257 259 261 262 263 264 265 266 268 270 271 272 274 275 276 276 278 279 282 284 285 286 287 287 288
237 238 239 241 243 244 246 247 248 250 251 252 253 254 254 254 255 256 258 259 260 261 263 263 264 266 267 270 271 272 273 274 275 276 277 279 281 283 284 285 286 287 288
237 238 240 241 242 244 245 247 248 250 252 252 253 254 255 256 256 257 258 259 260 261 263 264 265 266 267 268 270 272 273 274 275 276 278 280 282 283 284 285 286 287 288
237 239 240 242 243 244 245 247 248 249 251 252 253 254 255 257 258 258 258 259 260 262 263 264 265 266 267 268 270 271 272 273 274 276 278 280 282 283 284 285 286 287 288
238 239 240 242 244 245 246 247 249 250 251 252 253 254 255 256 257 258 259 260 261 262 263 265 266 267 267 269 270 271 272 274 274 276 277 279 281 283 284 285 287 287 288
238 240 241 242 244 245 247 248 249 250 251 252 254 255 255 256 257 258 259 260 262 263 263 265 266 267 267 269 270 272 273 274 275 276 277 279 281 284 285 286 286 287 288
238 240 241 242 244 245 246 248 249 250 251 252 254 254 255 256 257 257 259 260 262 263 264 265 266 267 267 268 270 272 273 275 276 277 278 279 281 284 285 285 286 286 287
238 240 241 243 244 245 246 248 249 250 251 253 254 255 255 256 257 258 260 261 262 263 264 264 265 266 267 268 269 271 274 275 276 277 277 279 281 282 284 284 285 286 286
239 240 241 243 244 246 248 249 250 252 252 253 254 255 256 257 258 259 260 261 262 263 263 264 265 266 267 268 270 272 273 274 275 276 277 279 280 281 283 284 284 285 286
240 241 242 244 245 247 248 250 252 253 253 254 254 256 257 258 258 259 260 262 262 263 263 264 265 266 267 268 269 271 273 274 275 276 277 278 280 281 282 283 284 285 286
Height
5841 5843 5845 5847 5849 5851 5852 5854 5855 5856 5858 5859 5860 5861 5862 5862 5863 5864 5864 5865 5865 5865 5865 5865 5865 5864 5864 5863 5862 5861 5860 5859 5858 5857 5856 5854 5853 5851 5850 5848 5847 5845 5844
5836 5838 5840 5843 5845 5846 5848 5850 5851 5853 5854 5855 5856 5857 5858 5859 5860 5860 5861 5861 5861 5861 5862 5862 5861 5861 5860 5860 5859 5858 5857 5856 5855 5854 5852 5851 5850 5848 5847 5845 5844 5842 5840
5831 5833 5835 5838 5840 5842 5844 5845 5847 5849 5850 5851 5853 5853 5854 5855 5856 5856 5857 5857 5858 5858 5858 5858 5858 5857 5857 5856 5855 5854 5854 5852 5851 5850 5849 5848 5846 5845 5843 5842 5840 5839 5837
5825 5828 5830 5832 5835 5837 5839 5841 5843 5844 5846 5847 5848 5849 5850 5851 5852 5852 5853 5853 5854 5854 5854 5854 5854 5853 5853 5852 5851 5850 5850 5849 5847 5846 5845 5844 5842 5841 5839 5838 5836 5835 5833
5819 5822 5825 5827 5829 5832 5834 5836 5838 5839 5841 5842 5843 5845 5845 5846 5847 5848 5848 5849 5849 5849 5849 5849 5849 5849 5849 5848 5847 5846 5845 5844 5843 5842 5841 5839 5838 5836 5835 5834 5832 5831 5829
5813 5816 5819 5821 5823 5826 5828 5830 5832 5834 5836 5837 5838 5839 5841 5842 5842 5843 5843 5844 5844 5844 5844 5845 5844 5844 5844 5843 5843 5842 5841 5840 5838 5837 5836 5834 5833 5832 5830 5829 5827 5826 5824
5805 5809 5812 5814 5817 5820 5822 5824 5826 5828 5830 5832 5833 5834 5835 5836 5837 5838 5838 5839 5839 5839 5839 5839 5839 5839 5839 5838 5837 5837 5836 5834 5833 5832 5831 5829 5828 5827 5825 5824 5823 5821 5819
5798 5802 5805 5808 5810 5813 5816 5818 5820 5822 5824 5826 5827 5829 5830 5831 5832 5832 5833 5833 5833 5833 5834 5834 5834 5833 5833 5833 5832 5831 5830 5829 5828 5827 5825 5824 5823 5821 5820 5819 5817 5816 5814
5790 5794 5797 5800 5803 5806 5809 5811 5814 5816 5818 5819 5821 5823 5824 5825 5826 5826 5827 5828 5828 5828 5828 5828 5828 5828 5827 5827 5826 5825 5824 5823 5822 5821 5820 5818 5817 5816 5815 5813 5812 5810 5809
5782 5785 5789 5792 5795 5798 5801 5804 5806 5809 5811 5813 5814 5816 5817 5818 5819 5820 5821 5821 5822 5822 5822 5822 5822 5821 5821 5820 5820 5819 5818 5817 5816 5815 5814 5813 5812 5811 5809 5808 5806 5805 5803
5774 5777 5781 5784 5787 5790 5793 5796 5798 5801 5804 5806 5807 5809 5810 5811 5813 5814 5814 5815 5815 5815 5815 5815 5815 5815 5815 5814 5814 5813 5812 5811 5810 5809 5808 5807 5806 5805 5804 5802 5801 5799 5797
5765 5769 5772 5776 5779 5782 5785 5788 5790 5793 5796 5798 5800 5801 5803 5804 5805 5806 5807 5808 5808 5809 5809 5809 5809 5808 5808 5808 5807 5806 5805 5804 5803 5802 5801 5801 5800 5799 5797 5796 5794 5793 5791
5756 5760 5764 5767 5770 5773 5776 5779 5782 5784 5787 5790 5792 5794 5795 5797 5798 5799 5800 5800 5801 5801 5801 5802 5801 5801 5801 5801 5800 5800 5799 5798 5797 5796 5795 5795 5793 5792 5791 5789 5787 5786 5784
5746 5750 5754 5758 5761 5765 5768 5771 5773 5776 5778 5781 5783 5785 5787 5789 5790 5791 5792 5793 5793 5794 5794 5794 5794 5794 5794 5794 5793 5793 5792 5792 5791 5790 5789 5788 5787 5785 5784 5782 5780 5778 5776
5735 5740 5744 5748 5752 5755 5759 5762 5765 5767 5769 5772 5774 5776 5778 5780 5781 5783 5784 5785 5786 5786 5786 5786 5786 5786 5786 5786 5785 5785 5785 5784 5783 5782 5781 5780 5779 5778 5776 5774 5772 5770 5768
5725 5729 5734 5738 5742 5746 5749 5752 5755 5758 5760 5763 5765 5767 5769 5771 5773 5774 5775 5776 5776 5777 5778 5778 5778 5778 5777 5777 5777 5777 5776 5776 5775 5774 5773 5772 5771 5770 5768 5766 5764 5761 5759
5713 5718 5723 5728 5732 5735 5739 5742 5745 5748 5750 5753 5755 5757 5759 5761 5763 5764 5765 5766 5767 5768 5769 5770 5769 5769 5768 5768 5768 5768 5767 5767 5767 5766 5765 5764 5762 5761 5759 5757 5754 5752 5750
5702 5707 5712 5717 5721 5725 5728 5732 5734 5737 5740 5743 5745 5747 5749 5751 5753 5754 5755 5756 5757 5758 5759 5760 5760 5760 5760 5759 5759 5759 5758 5758 5757 5757 5756 5754 5753 5751 5749 5747 5745 5742 5740
5691 5696 5701 5706 5710 5714 5717 5721 5724 5727 5730 5732 5735 5737 5739 5740 5742 5743 5745 5746 5747 5748 5749 5749 5750 5750 5750 5750 5749 5749 5748 5748 5747 5747 5746 5744 5743 5741 5739 5737 5734 5732 5729
5679 5684 5689 5694 5699 5703 5706 5710 5713 5716 5719 5721 5724 5726 5728 5730 5731 5732 5734 5735 5736 5737 5738 5739 5739 5739 5739 5739 5739 5739 5738 5737 5737 5736 5735 5734 5732 5730 5728 5726 5724 5721 5718
5668 5673 5678 5683 5687 5691 5695 5698 5701 5704 5707 5710 5712 5714 5716 5718 5720 5721 5723 5724 5725 5726 5727 5727 5728 5728 5728 5728 5728 5728 5727 5727 5726 5725 5724 5723 5721 5719 5717 5715 5712 5709 5707
5656 5661 5666 5671 5675 5679 5683 5686 5690 5693 5696 5698 5700 5702 5704 5706 5708 5710 5711 5712 5714 5715 5716 5716 5717 5717 5717 5717 5717 5717 5716 5716 5715 5715 5713 5711 5709 5707 5705 5703 5701 5698 5695
5643 5648 5653 5658 5663 5667 5671 5674 5677 5680 5683 5686 5688 5690 5692 5694 5696 5698 5699 5700 5702 5702 5704 5705 5705 5705 5705 5706 5705 5705 5704 5704 5703 5702 5700 5699 5697 5695 5693 5691 5689 5686 5683
5631 5636 5641 5646 5651 5655 5658 5662 5665 5668 5671 5673 5675 5678 5680 5682 5684 5685 5687 5688 5689 5690 5691 5692 5693 5693 5693 5693 5693 5693 5692 5691 5691 5689 5688 5687 5685 5683 5681 5679 5676 5674 5671
5618 5623 5628 5633 5638 5642 5646 5649 5652 5655 5658 5660 5663 5665 5668 5670 5672 5673 5674 5676 5677 5677 5678 5679 5679 5680 5680 5680 5680 5680 5679 5679 5678 5677 5675 5674 5673 5671 5669 5667 5664 5661 5658
5605 5610 5615 5620 5624 5629 5632 5636 5638 5642 5645 5648 5650 5652 5655 5657 5658 5659 5661 5662 5663 5664 5664 5665 5666 5666 5667 5667 5667 5667 5666 5666 5665 5665 5663 5661 5660 5657 5657 5655 5651 5648 5645